• In Portugal
  • List of Countries
  • For 7 days
  • Water Temperature
  • Satellite Maps
  • Weather Map
  • Weather Widgets
  • user-avatar
    Login

    Hourly Weather Silistra

    Today, 25 September, Tuesday

    Time Temperature Precipitation Wind Pressure Humidity
    00:00 +13°C° 0.7 mm 5 mps 760 mmHg 76%
    01:00 +12°C° 0.7 mm 4 mps 760 mmHg 76%
    02:00 +12°C° 0.7 mm 3 mps 761 mmHg 77%
    03:00 +12°C° 0.1 mm 3 mps 761 mmHg 76%
    04:00 +13°C° 0.1 mm 2 mps 762 mmHg 75%
    05:00 +13°C° 0.1 mm 2 mps 762 mmHg 74%
    06:00 +13°C° 0 mm 2 mps 762 mmHg 72%
    07:00 +13°C° 0 mm 2 mps 763 mmHg 70%
    08:00 +13°C° 0 mm 3 mps 763 mmHg 68%
    09:00 +13°C° 0.1 mm 3 mps 763 mmHg 62%
    10:00 +14°C° 0.1 mm 3 mps 764 mmHg 56%
    11:00 +14°C° 0.1 mm 3 mps 764 mmHg 49%
    12:00 +16°C° 0 mm 3 mps 764 mmHg 47%
    13:00 +16°C° 0 mm 3 mps 764 mmHg 44%
    14:00 +17°C° 0 mm 3 mps 764 mmHg 42%
    15:00 +17°C° 0 mm 3 mps 764 mmHg 38%
    16:00 +17°C° 0 mm 4 mps 764 mmHg 35%
    17:00 +17°C° 0 mm 4 mps 764 mmHg 32%
    18:00 +16°C° 0 mm 3 mps 765 mmHg 35%
    19:00 +14°C° 0 mm 3 mps 766 mmHg 37%
    20:00 +12°C° 0 mm 3 mps 767 mmHg 40%
    21:00 +12°C° 0 mm 3 mps 767 mmHg 43%
    22:00 +11°C° 0 mm 3 mps 768 mmHg 45%
    23:00 +10°C° 0 mm 3 mps 768 mmHg 47%

    Tomorrow, 26 September, Wednesday

    Time Temperature Precipitation Wind Pressure Humidity
    00:00 +10°C° 0 mm 3 mps 768 mmHg 49%
    01:00 +9°C° 0 mm 3 mps 769 mmHg 51%
    02:00 +8°C° 0 mm 4 mps 769 mmHg 52%
    03:00 +9°C° 0 mm 3 mps 769 mmHg 54%
    04:00 +8°C° 0 mm 3 mps 769 mmHg 56%
    05:00 +8°C° 0 mm 3 mps 769 mmHg 59%
    06:00 +8°C° 0 mm 4 mps 770 mmHg 55%
    07:00 +9°C° 0 mm 5 mps 770 mmHg 52%
    08:00 +10°C° 0 mm 6 mps 770 mmHg 49%
    09:00 +11°C° 0 mm 6 mps 770 mmHg 45%
    10:00 +12°C° 0 mm 7 mps 771 mmHg 41%
    11:00 +15°C° 0 mm 7 mps 771 mmHg 36%
    12:00 +15°C° 0 mm 7 mps 770 mmHg 34%
    13:00 +16°C° 0 mm 7 mps 770 mmHg 32%
    14:00 +16°C° 0 mm 7 mps 770 mmHg 30%
    15:00 +16°C° 0 mm 6 mps 769 mmHg 30%
    16:00 +15°C° 0 mm 6 mps 769 mmHg 31%
    17:00 +15°C° 0 mm 6 mps 769 mmHg 31%
    18:00 +13°C° 0 mm 5 mps 769 mmHg 34%
    19:00 +12°C° 0 mm 4 mps 770 mmHg 38%
    20:00 +11°C° 0 mm 3 mps 770 mmHg 41%
    21:00 +10°C° 0 mm 3 mps 770 mmHg 43%
    22:00 +9°C° 0 mm 3 mps 771 mmHg 45%
    23:00 +9°C° 0 mm 3 mps 771 mmHg 46%

    Day after tomorrow, 27 September, Thursday

    Time Temperature Precipitation Wind Pressure Humidity
    00:00 +8°C° 0 mm 3 mps 771 mmHg 48%
    01:00 +8°C° 0 mm 3 mps 770 mmHg 49%
    02:00 +7°C° 0 mm 3 mps 770 mmHg 51%
    03:00 +7°C° 0 mm 2 mps 770 mmHg 52%
    04:00 +6°C° 0 mm 2 mps 770 mmHg 54%
    05:00 +6°C° 0 mm 2 mps 769 mmHg 55%
    06:00 +7°C° 0 mm 2 mps 769 mmHg 52%
    07:00 +8°C° 0 mm 2 mps 769 mmHg 48%
    08:00 +9°C° 0 mm 2 mps 769 mmHg 44%
    09:00 +11°C° 0 mm 3 mps 769 mmHg 39%
    10:00 +13°C° 0 mm 3 mps 769 mmHg 34%
    11:00 +16°C° 0 mm 3 mps 769 mmHg 29%
    12:00 +17°C° 0 mm 3 mps 768 mmHg 26%
    13:00 +18°C° 0 mm 3 mps 767 mmHg 24%
    14:00 +19°C° 0 mm 3 mps 767 mmHg 22%
    15:00 +19°C° 0 mm 3 mps 766 mmHg 22%
    16:00 +18°C° 0 mm 2 mps 766 mmHg 23%
    17:00 +18°C° 0 mm 2 mps 765 mmHg 23%
    18:00 +16°C° 0 mm 2 mps 766 mmHg 27%
    19:00 +15°C° 0 mm 1 mps 766 mmHg 30%
    20:00 +13°C° 0 mm 1 mps 766 mmHg 34%
    21:00 +12°C° 0 mm 1 mps 766 mmHg 36%
    22:00 +12°C° 0 mm 1 mps 766 mmHg 39%
    23:00 +11°C° 0 mm 1 mps 766 mmHg 41%

    28 September, Friday

    Time Temperature Precipitation Wind Pressure Humidity
    00:00 +11°C° 0 mm 1 mps 765 mmHg 42%
    01:00 +11°C° 0 mm 1 mps 765 mmHg 43%
    02:00 +10°C° 0 mm 0 mps 765 mmHg 43%
    03:00 +9°C° 0 mm 0 mps 764 mmHg 43%
    04:00 +9°C° 0 mm 0 mps 764 mmHg 43%
    05:00 +9°C° 0 mm 0 mps 764 mmHg 42%
    06:00 +11°C° 0 mm 1 mps 764 mmHg 39%
    07:00 +13°C° 0 mm 1 mps 764 mmHg 36%
    08:00 +14°C° 0 mm 1 mps 763 mmHg 33%
    09:00 +16°C° 0 mm 1 mps 763 mmHg 31%
    10:00 +19°C° 0 mm 1 mps 763 mmHg 29%
    11:00 +20°C° 0 mm 2 mps 763 mmHg 28%
    12:00 +21°C° 0 mm 2 mps 762 mmHg 27%
    13:00 +23°C° 0 mm 2 mps 762 mmHg 27%
    14:00 +24°C° 0 mm 2 mps 761 mmHg 26%
    15:00 +23°C° 0 mm 2 mps 760 mmHg 28%
    16:00 +23°C° 0 mm 2 mps 760 mmHg 30%
    17:00 +23°C° 0 mm 2 mps 760 mmHg 32%
    18:00 +20°C° 0 mm 2 mps 760 mmHg 38%
    19:00 +18°C° 0 mm 2 mps 760 mmHg 45%
    20:00 +16°C° 0 mm 2 mps 760 mmHg 51%
    21:00 +16°C° 0 mm 2 mps 759 mmHg 56%
    22:00 +15°C° 0 mm 2 mps 759 mmHg 60%
    23:00 +15°C° 0 mm 1 mps 759 mmHg 65%

    29 September, Saturday

    Time Temperature Precipitation Wind Pressure Humidity
    00:00 +14°C° 0 mm 1 mps 759 mmHg 66%
    01:00 +14°C° 0 mm 1 mps 758 mmHg 67%
    02:00 +14°C° 0 mm 1 mps 758 mmHg 69%
    03:00 +14°C° 0 mm 1 mps 758 mmHg 69%
    04:00 +14°C° 0 mm 1 mps 758 mmHg 69%
    05:00 +13°C° 0 mm 1 mps 758 mmHg 69%
    06:00 +14°C° 0 mm 1 mps 758 mmHg 65%
    07:00 +15°C° 0 mm 1 mps 758 mmHg 61%
    08:00 +15°C° 0 mm 0 mps 758 mmHg 57%
    09:00 +17°C° 0 mm 0 mps 758 mmHg 51%
    10:00 +21°C° 0 mm 1 mps 758 mmHg 46%
    11:00 +23°C° 0 mm 1 mps 758 mmHg 40%
    12:00 +23°C° 0 mm 1 mps 757 mmHg 38%
    13:00 +24°C° 0 mm 1 mps 757 mmHg 36%
    14:00 +25°C° 0 mm 1 mps 757 mmHg 34%
    15:00 +25°C° 0 mm 2 mps 757 mmHg 35%
    16:00 +24°C° 0 mm 2 mps 757 mmHg 35%
    17:00 +24°C° 0 mm 2 mps 757 mmHg 36%
    18:00 +21°C° 0 mm 2 mps 758 mmHg 42%
    19:00 +20°C° 0 mm 2 mps 758 mmHg 47%
    20:00 +18°C° 0 mm 2 mps 759 mmHg 52%
    21:00 +18°C° 0 mm 3 mps 759 mmHg 58%
    22:00 +17°C° 0 mm 4 mps 759 mmHg 63%
    23:00 +15°C° 0 mm 4 mps 760 mmHg 69%

    30 September, Sunday

    Time Temperature Precipitation Wind Pressure Humidity
    00:00 +14°C° 0 mm 4 mps 760 mmHg 74%
    01:00 +14°C° 0 mm 4 mps 760 mmHg 78%
    02:00 +13°C° 0 mm 4 mps 760 mmHg 82%
    03:00 +13°C° 0 mm 4 mps 760 mmHg 83%
    04:00 +13°C° 0 mm 4 mps 761 mmHg 85%
    05:00 +12°C° 0 mm 4 mps 761 mmHg 86%
    06:00 +13°C° 0 mm 5 mps 761 mmHg 82%
    07:00 +14°C° 0 mm 5 mps 761 mmHg 78%
    08:00 +14°C° 0 mm 5 mps 762 mmHg 74%
    09:00 +16°C° 0 mm 5 mps 762 mmHg 67%
    10:00 +19°C° 0 mm 5 mps 762 mmHg 60%
    11:00 +20°C° 0 mm 5 mps 762 mmHg 53%
    12:00 +21°C° 0 mm 5 mps 762 mmHg 49%
    13:00 +22°C° 0 mm 5 mps 761 mmHg 44%
    14:00 +23°C° 0 mm 5 mps 761 mmHg 40%
    15:00 +22°C° 0 mm 5 mps 761 mmHg 39%
    16:00 +22°C° 0 mm 4 mps 761 mmHg 38%
    17:00 +21°C° 0 mm 4 mps 761 mmHg 37%
    18:00 +19°C° 0 mm 4 mps 761 mmHg 41%
    19:00 +18°C° 0 mm 3 mps 762 mmHg 44%
    20:00 +16°C° 0 mm 2 mps 762 mmHg 48%
    21:00 +16°C° 0 mm 2 mps 762 mmHg 49%
    22:00 +15°C° 0 mm 2 mps 762 mmHg 51%
    23:00 +14°C° 0 mm 2 mps 762 mmHg 52%
    Show more